RYR13CQ LOWW-EGSS

Flight info

Callsign RYR13CQ
Flight time 1h 48m
Altitude 36000
Route BUWUT DCT DITIS DCT OKG DCT VELIS DCT SWALM DCT NOGRO M40 RINIS
Aircraft A320/M-SDE3FGHIRWY/LB1

Departure

Time 2026-04-22 14:04
Airport Vienna International Airport (LOWW)

Arrival

Time 2026-04-22 15:52
Airport London Stansted Airport (EGSS)
Time Latitude Longitude Altitude Speed Heading
2026-04-22 13:24 48.11896 16.56022 616 ft 0 kts 160°
2026-04-22 13:50 48.11910 16.56013 621 ft 4 kts 124°
2026-04-22 13:51 48.11918 16.55978 622 ft 4 kts 115°
2026-04-22 13:51 48.11929 16.55952 624 ft 4 kts 145°
2026-04-22 13:51 48.11952 16.55945 612 ft 4 kts 197°
2026-04-22 13:51 48.11969 16.55954 621 ft 0 kts 206°
2026-04-22 13:55 48.11968 16.55954 609 ft 1 kts 206°
2026-04-22 13:55 48.11957 16.55946 618 ft 2 kts 206°
2026-04-22 13:55 48.11943 16.55935 609 ft 2 kts 206°
2026-04-22 13:55 48.11929 16.55925 618 ft 3 kts 206°
2026-04-22 13:56 48.11893 16.55900 609 ft 7 kts 206°
2026-04-22 13:56 48.11840 16.55861 609 ft 9 kts 206°
2026-04-22 13:56 48.11777 16.55815 609 ft 11 kts 206°
2026-04-22 13:56 48.11708 16.55788 611 ft 11 kts 168°
2026-04-22 13:57 48.11662 16.55882 617 ft 12 kts 115°
2026-04-22 13:57 48.11627 16.55994 616 ft 12 kts 115°
2026-04-22 13:57 48.11591 16.56105 616 ft 12 kts 117°
2026-04-22 13:57 48.11554 16.56213 617 ft 12 kts 116°
2026-04-22 13:58 48.11510 16.56349 611 ft 18 kts 116°
2026-04-22 13:58 48.11470 16.56471 616 ft 22 kts 117°
2026-04-22 13:58 48.11386 16.56729 616 ft 19 kts 115°
2026-04-22 13:58 48.11331 16.56902 609 ft 17 kts 115°
2026-04-22 13:59 48.11281 16.57055 615 ft 16 kts 116°
2026-04-22 13:59 48.11235 16.57193 619 ft 14 kts 116°
2026-04-22 13:59 48.11207 16.57277 613 ft 13 kts 116°
2026-04-22 13:59 48.11159 16.57424 609 ft 11 kts 115°
2026-04-22 14:00 48.11138 16.57489 609 ft 10 kts 115°
2026-04-22 14:00 48.11111 16.57575 616 ft 8 kts 115°
2026-04-22 14:00 48.11084 16.57641 611 ft 7 kts 138°
2026-04-22 14:00 48.11045 16.57649 615 ft 6 kts 195°
2026-04-22 14:01 48.11027 16.57635 609 ft 0 kts 207°
2026-04-22 14:02 48.11014 16.57625 614 ft 5 kts 207°
2026-04-22 14:02 48.10961 16.57586 613 ft 12 kts 206°
2026-04-22 14:02 48.10927 16.57502 616 ft 9 kts 283°
2026-04-22 14:03 48.10946 16.57437 619 ft 6 kts 296°
2026-04-22 14:03 48.10986 16.57316 615 ft 27 kts 296°
2026-04-22 14:03 48.11174 16.56739 622 ft 94 kts 295°
2026-04-22 14:03 48.11543 16.55601 610 ft 147 kts 295°
2026-04-22 14:04 48.12023 16.54112 1007 ft 158 kts 300°
2026-04-22 14:04 48.12259 16.52512 1716 ft 167 kts 263°
2026-04-22 14:04 48.11639 16.50927 2075 ft 197 kts 221°
2026-04-22 14:04 48.10431 16.49725 2402 ft 218 kts 215°
2026-04-22 14:05 48.09108 16.48496 3005 ft 226 kts 215°
2026-04-22 14:05 48.07827 16.47166 3854 ft 223 kts 230°
2026-04-22 14:05 48.06310 16.42786 4673 ft 260 kts 251°
2026-04-22 14:06 48.05585 16.40254 5449 ft 268 kts 251°
2026-04-22 14:06 48.04828 16.37689 6334 ft 272 kts 249°
2026-04-22 14:06 48.04051 16.35097 7176 ft 275 kts 250°
2026-04-22 14:06 48.03456 16.32385 7953 ft 276 kts 264°
2026-04-22 14:07 48.03384 16.29532 8728 ft 277 kts 278°
2026-04-22 14:07 48.03517 16.26634 9494 ft 283 kts 278°
2026-04-22 14:07 48.03702 16.23692 10255 ft 286 kts 285°
2026-04-22 14:07 48.04294 16.20856 10862 ft 291 kts 298°
2026-04-22 14:08 48.05394 16.18219 11113 ft 309 kts 313°
2026-04-22 14:08 48.06849 16.15707 11404 ft 328 kts 314°
2026-04-22 14:08 48.08358 16.13099 12042 ft 335 kts 314°
2026-04-22 14:08 48.09885 16.10437 12769 ft 339 kts 314°
2026-04-22 14:09 48.11425 16.07730 13476 ft 344 kts 314°
2026-04-22 14:09 48.12982 16.04982 14160 ft 348 kts 314°
2026-04-22 14:09 48.14557 16.02200 14797 ft 352 kts 314°
2026-04-22 14:09 48.16147 15.99390 15441 ft 355 kts 314°
2026-04-22 14:10 48.17753 15.96553 16067 ft 359 kts 314°
2026-04-22 14:10 48.19379 15.93683 16688 ft 363 kts 314°
2026-04-22 14:10 48.21021 15.90784 17318 ft 366 kts 314°
2026-04-22 14:10 48.22655 15.87896 17929 ft 370 kts 314°
2026-04-22 14:11 48.24326 15.84935 18532 ft 374 kts 314°
2026-04-22 14:11 48.26012 15.81943 19065 ft 377 kts 314°
2026-04-22 14:11 48.27733 15.78880 19626 ft 380 kts 314°
2026-04-22 14:11 48.29423 15.75871 20167 ft 384 kts 314°
2026-04-22 14:12 48.31151 15.72795 20717 ft 387 kts 314°
2026-04-22 14:12 48.32894 15.69701 21267 ft 390 kts 314°
2026-04-22 14:12 48.34651 15.66573 21815 ft 393 kts 314°
2026-04-22 14:12 48.36418 15.63419 22318 ft 396 kts 314°
2026-04-22 14:13 48.38196 15.60242 22838 ft 399 kts 314°
2026-04-22 14:13 48.39985 15.57034 23351 ft 402 kts 314°
2026-04-22 14:13 48.41786 15.53796 23854 ft 405 kts 313°
2026-04-22 14:13 48.43600 15.50534 24270 ft 408 kts 313°
2026-04-22 14:14 48.45425 15.47254 24691 ft 410 kts 314°
2026-04-22 14:14 48.47264 15.43954 25100 ft 412 kts 313°
2026-04-22 14:14 48.49110 15.40636 25495 ft 414 kts 314°
2026-04-22 14:14 48.50965 15.37294 25883 ft 417 kts 313°
2026-04-22 14:15 48.52829 15.33926 26269 ft 419 kts 313°
2026-04-22 14:15 48.54699 15.30539 26624 ft 421 kts 313°
2026-04-22 14:15 48.56581 15.27131 26995 ft 424 kts 313°
2026-04-22 14:15 48.58473 15.23697 27357 ft 426 kts 313°
2026-04-22 14:16 48.60373 15.20245 27710 ft 429 kts 313°
2026-04-22 14:16 48.62282 15.16769 28057 ft 431 kts 313°
2026-04-22 14:16 48.64198 15.13275 28407 ft 433 kts 313°
2026-04-22 14:16 48.66124 15.09761 28747 ft 435 kts 313°
2026-04-22 14:17 48.68063 15.06227 29067 ft 437 kts 313°
2026-04-22 14:17 48.70011 15.02675 29371 ft 440 kts 313°
2026-04-22 14:17 48.71967 14.99101 29672 ft 442 kts 313°
2026-04-22 14:17 48.73932 14.95512 29943 ft 444 kts 313°
2026-04-22 14:18 48.75906 14.91902 30231 ft 446 kts 313°
2026-04-22 14:18 48.77885 14.88273 30469 ft 448 kts 313°
2026-04-22 14:18 48.79870 14.84624 30703 ft 449 kts 313°
2026-04-22 14:18 48.81855 14.80960 30993 ft 449 kts 313°
2026-04-22 14:19 48.83836 14.77292 31296 ft 449 kts 313°
2026-04-22 14:19 48.85815 14.73629 31608 ft 448 kts 313°
2026-04-22 14:19 48.87791 14.69974 31918 ft 448 kts 313°
2026-04-22 14:19 48.89765 14.66319 32232 ft 447 kts 313°
2026-04-22 14:20 48.93699 14.59018 32869 ft 445 kts 313°
2026-04-22 14:20 48.95658 14.55381 33195 ft 444 kts 313°
2026-04-22 14:20 48.97611 14.51748 33530 ft 443 kts 313°
2026-04-22 14:21 49.01496 14.44488 34161 ft 441 kts 313°
2026-04-22 14:21 49.03432 14.40864 34438 ft 441 kts 313°
2026-04-22 14:22 49.07301 14.33622 34920 ft 440 kts 313°
2026-04-22 14:22 49.09236 14.29994 35115 ft 442 kts 313°
2026-04-22 14:22 49.13112 14.22699 35537 ft 442 kts 312°
2026-04-22 14:23 49.15047 14.19049 35778 ft 442 kts 312°
2026-04-22 14:23 49.16982 14.15396 36002 ft 442 kts 312°
2026-04-22 14:23 49.18915 14.11743 36201 ft 443 kts 312°
2026-04-22 14:24 49.22777 14.04421 36268 ft 442 kts 312°
2026-04-22 14:24 49.26603 13.97146 36267 ft 441 kts 312°
2026-04-22 14:25 49.30453 13.89819 36244 ft 441 kts 312°
2026-04-22 14:25 49.34293 13.82489 36272 ft 441 kts 312°
2026-04-22 14:26 49.38126 13.75153 36261 ft 441 kts 312°
2026-04-22 14:26 49.41958 13.67789 36262 ft 442 kts 312°
2026-04-22 14:27 49.45789 13.60404 36261 ft 442 kts 312°
2026-04-22 14:27 49.49618 13.52997 36256 ft 443 kts 311°
2026-04-22 14:28 49.53446 13.45577 36251 ft 443 kts 311°
2026-04-22 14:28 49.57271 13.38149 36260 ft 443 kts 311°
2026-04-22 14:29 49.61098 13.30714 36267 ft 443 kts 311°
2026-04-22 14:29 49.64916 13.23259 36269 ft 443 kts 311°
2026-04-22 14:30 49.68699 13.15839 36263 ft 443 kts 311°
2026-04-22 14:30 49.72508 13.08346 36271 ft 444 kts 311°
2026-04-22 14:31 49.76323 13.00842 36270 ft 444 kts 311°
2026-04-22 14:31 49.80132 12.93318 36275 ft 444 kts 311°
2026-04-22 14:32 49.83933 12.85771 36274 ft 444 kts 311°
2026-04-22 14:32 49.87735 12.78214 36257 ft 445 kts 311°
2026-04-22 14:33 49.91533 12.70653 36272 ft 444 kts 311°
2026-04-22 14:33 49.95325 12.63075 36270 ft 444 kts 311°
2026-04-22 14:34 49.99117 12.55483 36272 ft 445 kts 311°
2026-04-22 14:34 50.02901 12.47864 36285 ft 446 kts 311°
2026-04-22 14:35 50.06440 12.39932 36280 ft 450 kts 300°
2026-04-22 14:35 50.08669 12.30770 36295 ft 454 kts 292°
2026-04-22 14:36 50.10691 12.21457 36303 ft 454 kts 292°
2026-04-22 14:36 50.12717 12.12134 36301 ft 454 kts 292°
2026-04-22 14:37 50.14738 12.02798 36299 ft 454 kts 292°
2026-04-22 14:37 50.16747 11.93453 36279 ft 455 kts 291°
2026-04-22 14:38 50.18745 11.84099 36288 ft 455 kts 291°
2026-04-22 14:38 50.20733 11.74731 36293 ft 455 kts 291°
2026-04-22 14:39 50.22708 11.65425 36303 ft 455 kts 291°
2026-04-22 14:39 50.24687 11.56047 36306 ft 455 kts 291°
2026-04-22 14:40 50.27633 11.41961 36312 ft 455 kts 291°
2026-04-22 14:40 50.29592 11.32567 36320 ft 454 kts 291°
2026-04-22 14:41 50.31547 11.23165 36325 ft 454 kts 291°
2026-04-22 14:41 50.33490 11.13755 36327 ft 454 kts 291°
2026-04-22 14:42 50.35423 11.04341 36319 ft 454 kts 291°
2026-04-22 14:42 50.37351 10.94916 36326 ft 454 kts 291°
2026-04-22 14:43 50.39276 10.85486 36327 ft 454 kts 291°
2026-04-22 14:43 50.41194 10.76043 36330 ft 455 kts 291°
2026-04-22 14:44 50.43098 10.66585 36315 ft 455 kts 290°
2026-04-22 14:44 50.44996 10.57132 36329 ft 454 kts 290°
2026-04-22 14:45 50.46883 10.47667 36336 ft 454 kts 290°
2026-04-22 14:45 50.48775 10.38216 36338 ft 454 kts 291°
2026-04-22 14:46 50.50357 10.30363 36338 ft 454 kts 291°
2026-04-22 14:46 50.52255 10.20910 36327 ft 453 kts 290°
2026-04-22 14:47 50.54129 10.11454 36336 ft 453 kts 290°
2026-04-22 14:47 50.55997 10.01994 36340 ft 453 kts 290°
2026-04-22 14:48 50.57863 9.92539 36342 ft 453 kts 290°
2026-04-22 14:48 50.59713 9.83075 36341 ft 453 kts 290°
2026-04-22 14:49 50.61559 9.73607 36336 ft 452 kts 290°
2026-04-22 14:49 50.63397 9.64150 36342 ft 452 kts 290°
2026-04-22 14:50 50.65222 9.54688 36341 ft 451 kts 290°
2026-04-22 14:50 50.67035 9.45218 36341 ft 451 kts 290°
2026-04-22 14:51 50.68833 9.35815 36335 ft 451 kts 290°
2026-04-22 14:51 50.70644 9.26282 36341 ft 450 kts 290°
2026-04-22 14:52 50.72474 9.16838 36346 ft 449 kts 292°
2026-04-22 14:52 50.74626 9.07674 36345 ft 448 kts 295°
2026-04-22 14:53 50.76926 8.98537 36349 ft 448 kts 294°
2026-04-22 14:53 50.79158 8.89352 36350 ft 448 kts 294°
2026-04-22 14:54 50.81317 8.80115 36346 ft 448 kts 293°
2026-04-22 14:54 50.83457 8.70858 36350 ft 448 kts 293°
2026-04-22 14:55 50.85604 8.61603 36346 ft 448 kts 293°
2026-04-22 14:55 50.87757 8.52345 36337 ft 448 kts 293°
2026-04-22 14:56 50.89901 8.43088 36319 ft 448 kts 293°
2026-04-22 14:56 50.92033 8.33815 36324 ft 448 kts 293°
2026-04-22 14:57 50.94157 8.24540 36329 ft 448 kts 292°
2026-04-22 14:57 50.96271 8.15260 36331 ft 447 kts 292°
2026-04-22 14:58 50.98374 8.05969 36331 ft 447 kts 292°
2026-04-22 14:58 51.00475 7.96675 36322 ft 447 kts 292°
2026-04-22 14:59 51.02570 7.87380 36325 ft 447 kts 292°
2026-04-22 14:59 51.04652 7.78082 36330 ft 447 kts 292°
2026-04-22 15:00 51.06728 7.68779 36328 ft 447 kts 292°
2026-04-22 15:00 51.08796 7.59466 36331 ft 447 kts 292°
2026-04-22 15:01 51.10853 7.50147 36319 ft 446 kts 292°
2026-04-22 15:01 51.12887 7.40889 36323 ft 446 kts 292°
2026-04-22 15:02 51.14927 7.31562 36326 ft 446 kts 292°
2026-04-22 15:02 51.16960 7.22224 36328 ft 446 kts 292°
2026-04-22 15:03 51.18985 7.12880 36318 ft 446 kts 292°
2026-04-22 15:03 51.21001 7.03538 36341 ft 445 kts 292°
2026-04-22 15:04 51.23011 6.94193 36348 ft 445 kts 291°
2026-04-22 15:04 51.25012 6.84847 36360 ft 445 kts 291°
2026-04-22 15:05 51.27006 6.75500 36356 ft 445 kts 291°
2026-04-22 15:05 51.28988 6.66137 36348 ft 445 kts 291°
2026-04-22 15:06 51.30959 6.56780 36354 ft 444 kts 291°
2026-04-22 15:06 51.32927 6.47417 36355 ft 444 kts 291°
2026-04-22 15:07 51.34891 6.38061 36354 ft 444 kts 291°
2026-04-22 15:07 51.36841 6.28696 36358 ft 444 kts 291°
2026-04-22 15:08 51.38779 6.19317 36339 ft 443 kts 291°
2026-04-22 15:08 51.40705 6.09944 36355 ft 443 kts 291°
2026-04-22 15:09 51.42632 6.00585 36357 ft 442 kts 291°
2026-04-22 15:09 51.44545 5.91209 36356 ft 443 kts 291°
2026-04-22 15:10 51.46452 5.81829 36355 ft 443 kts 291°
2026-04-22 15:10 51.48347 5.72440 36341 ft 442 kts 291°
2026-04-22 15:11 51.50241 5.63053 36351 ft 442 kts 291°
2026-04-22 15:11 51.52124 5.53667 36354 ft 442 kts 290°
2026-04-22 15:12 51.53994 5.44276 36358 ft 441 kts 290°
2026-04-22 15:12 51.55859 5.34882 36357 ft 441 kts 290°
2026-04-22 15:13 51.57701 5.25545 36341 ft 441 kts 290°
2026-04-22 15:13 51.59544 5.16150 36353 ft 440 kts 290°
2026-04-22 15:14 51.61383 5.06766 36360 ft 440 kts 290°
2026-04-22 15:14 51.63213 4.97379 36361 ft 439 kts 290°
2026-04-22 15:15 51.65029 4.87985 36358 ft 439 kts 290°
2026-04-22 15:15 51.66838 4.78590 36344 ft 439 kts 290°
2026-04-22 15:16 51.68642 4.69198 36346 ft 439 kts 290°
2026-04-22 15:16 51.70437 4.59799 36347 ft 439 kts 290°
2026-04-22 15:17 51.72228 4.50398 36351 ft 439 kts 290°
2026-04-22 15:17 51.74005 4.40982 36353 ft 439 kts 290°
2026-04-22 15:18 51.75777 4.31560 36350 ft 439 kts 289°
2026-04-22 15:18 51.77531 4.22121 36351 ft 439 kts 289°
2026-04-22 15:19 51.79289 4.12675 36350 ft 439 kts 289°
2026-04-22 15:19 51.81044 4.03229 36352 ft 439 kts 289°
2026-04-22 15:20 51.82785 3.93766 36349 ft 439 kts 289°
2026-04-22 15:20 51.84519 3.84296 36343 ft 439 kts 289°
2026-04-22 15:21 51.86250 3.74829 36352 ft 439 kts 289°
2026-04-22 15:21 51.87976 3.65354 36268 ft 440 kts 289°
2026-04-22 15:22 51.88832 3.60609 36012 ft 439 kts 289°
2026-04-22 15:22 51.89681 3.55865 35766 ft 438 kts 289°
2026-04-22 15:22 51.90527 3.51131 35522 ft 438 kts 289°
2026-04-22 15:22 51.91370 3.46398 35284 ft 437 kts 289°
2026-04-22 15:23 51.92213 3.41669 35043 ft 437 kts 289°
2026-04-22 15:23 51.93055 3.36948 34772 ft 435 kts 289°
2026-04-22 15:23 51.93897 3.32226 33864 ft 439 kts 289°
2026-04-22 15:23 51.94746 3.27458 32987 ft 440 kts 289°
2026-04-22 15:24 51.95580 3.22736 32525 ft 432 kts 288°
2026-04-22 15:24 51.96182 3.17973 31925 ft 432 kts 279°
2026-04-22 15:24 51.96275 3.13109 31319 ft 432 kts 269°
2026-04-22 15:24 51.95979 3.08266 30733 ft 430 kts 266°
2026-04-22 15:25 51.95658 3.03457 30085 ft 428 kts 267°
2026-04-22 15:25 51.95344 2.98687 29519 ft 423 kts 268°
2026-04-22 15:25 51.95035 2.93969 28963 ft 419 kts 266°
2026-04-22 15:25 51.94729 2.89299 28414 ft 415 kts 265°
2026-04-22 15:26 51.94424 2.84674 27886 ft 411 kts 266°
2026-04-22 15:26 51.94122 2.80085 27360 ft 408 kts 266°
2026-04-22 15:26 51.93822 2.75529 26850 ft 405 kts 265°
2026-04-22 15:26 51.93519 2.71003 26341 ft 403 kts 266°
2026-04-22 15:27 51.93214 2.66504 25874 ft 400 kts 265°
2026-04-22 15:27 51.92906 2.62031 25406 ft 398 kts 265°
2026-04-22 15:27 51.92599 2.57589 24949 ft 396 kts 264°
2026-04-22 15:27 51.92293 2.53170 24499 ft 393 kts 264°
2026-04-22 15:28 51.91993 2.48840 24064 ft 391 kts 264°
2026-04-22 15:28 51.91689 2.44477 23578 ft 389 kts 264°
2026-04-22 15:28 51.91384 2.40154 23148 ft 384 kts 263°
2026-04-22 15:28 51.91081 2.35877 22723 ft 380 kts 263°
2026-04-22 15:29 51.90788 2.31646 22299 ft 377 kts 264°
2026-04-22 15:29 51.90590 2.27355 21919 ft 388 kts 266°
2026-04-22 15:29 51.90478 2.22950 21515 ft 394 kts 268°
2026-04-22 15:30 51.90375 2.15598 20845 ft 391 kts 268°
2026-04-22 15:30 51.90288 2.09743 20311 ft 387 kts 268°
2026-04-22 15:30 51.90203 2.05389 19915 ft 386 kts 267°
2026-04-22 15:30 51.90104 2.01045 19521 ft 386 kts 266°
2026-04-22 15:31 51.89993 1.96719 19125 ft 383 kts 266°
2026-04-22 15:31 51.89930 1.92416 18735 ft 382 kts 272°
2026-04-22 15:31 51.90314 1.88181 18305 ft 380 kts 284°
2026-04-22 15:31 51.91218 1.84185 17952 ft 379 kts 296°
2026-04-22 15:32 51.92457 1.80423 17590 ft 378 kts 297°
2026-04-22 15:32 51.93386 1.76471 17316 ft 374 kts 281°
2026-04-22 15:32 51.93644 1.73725 17142 ft 373 kts 276°
2026-04-22 15:32 51.93967 1.69556 16883 ft 373 kts 275°
2026-04-22 15:33 51.94283 1.65387 16622 ft 371 kts 276°
2026-04-22 15:33 51.94591 1.61248 16367 ft 370 kts 275°
2026-04-22 15:33 51.94891 1.57123 16113 ft 367 kts 275°
2026-04-22 15:33 51.95187 1.53026 15859 ft 365 kts 275°
2026-04-22 15:34 51.95483 1.48936 15611 ft 366 kts 275°
2026-04-22 15:34 51.95778 1.44853 15366 ft 364 kts 275°
2026-04-22 15:34 51.96072 1.40788 15097 ft 361 kts 275°
2026-04-22 15:34 51.96363 1.36756 14681 ft 360 kts 275°
2026-04-22 15:35 51.96654 1.32719 14210 ft 361 kts 275°
2026-04-22 15:35 51.96942 1.28679 13714 ft 360 kts 275°
2026-04-22 15:35 51.97227 1.24652 13230 ft 359 kts 275°
2026-04-22 15:35 51.97506 1.20644 12769 ft 357 kts 275°
2026-04-22 15:36 51.97783 1.16649 12281 ft 356 kts 275°
2026-04-22 15:36 51.98059 1.12671 11797 ft 354 kts 275°
2026-04-22 15:36 51.98334 1.08708 11323 ft 353 kts 274°
2026-04-22 15:36 51.98606 1.04762 10832 ft 351 kts 275°
2026-04-22 15:37 51.98878 1.00862 10599 ft 342 kts 275°
2026-04-22 15:37 51.99137 0.97155 10440 ft 320 kts 275°
2026-04-22 15:37 51.99379 0.93639 9966 ft 309 kts 274°
2026-04-22 15:37 51.99610 0.90203 9780 ft 307 kts 275°
2026-04-22 15:38 51.99837 0.86768 9540 ft 306 kts 274°
2026-04-22 15:38 52.00294 0.79909 8727 ft 307 kts 274°
2026-04-22 15:38 52.00525 0.76478 8341 ft 304 kts 274°
2026-04-22 15:39 52.00753 0.73076 7913 ft 303 kts 274°
2026-04-22 15:39 52.00977 0.69674 7514 ft 302 kts 275°
2026-04-22 15:39 52.01197 0.66305 7121 ft 299 kts 275°
2026-04-22 15:39 52.01414 0.62974 6681 ft 294 kts 274°
2026-04-22 15:40 52.01573 0.59663 6066 ft 293 kts 266°
2026-04-22 15:40 52.01424 0.56398 5988 ft 290 kts 263°
2026-04-22 15:40 52.01271 0.53112 5999 ft 293 kts 264°
2026-04-22 15:40 52.01128 0.49819 6001 ft 292 kts 264°
2026-04-22 15:41 52.00986 0.46525 6005 ft 292 kts 263°
2026-04-22 15:41 52.00839 0.43234 6005 ft 292 kts 263°
2026-04-22 15:41 52.00689 0.39954 6005 ft 291 kts 263°
2026-04-22 15:41 52.00536 0.36683 6007 ft 291 kts 263°
2026-04-22 15:42 52.00382 0.33411 6010 ft 291 kts 263°
2026-04-22 15:42 52.00132 0.30218 6007 ft 288 kts 252°
2026-04-22 15:42 51.99419 0.27204 6009 ft 285 kts 237°
2026-04-22 15:42 51.98277 0.24634 6010 ft 279 kts 221°
2026-04-22 15:43 51.96877 0.22483 6010 ft 278 kts 218°
2026-04-22 15:43 51.95452 0.20324 5633 ft 283 kts 219°
2026-04-22 15:43 51.94027 0.18147 5205 ft 281 kts 219°
2026-04-22 15:43 51.92606 0.15973 4758 ft 279 kts 218°
2026-04-22 15:44 51.91224 0.13856 4348 ft 267 kts 219°
2026-04-22 15:44 51.89909 0.11841 3986 ft 254 kts 219°
2026-04-22 15:44 51.88658 0.09925 3677 ft 242 kts 218°
2026-04-22 15:44 51.87434 0.08060 3350 ft 241 kts 219°
2026-04-22 15:45 51.86206 0.06197 3007 ft 243 kts 219°
2026-04-22 15:45 51.84981 0.04349 2847 ft 235 kts 218°
2026-04-22 15:45 51.83811 0.02593 2797 ft 224 kts 218°
2026-04-22 15:45 51.82690 0.00913 2742 ft 216 kts 219°
2026-04-22 15:46 51.81597 -0.00717 2718 ft 213 kts 219°
2026-04-22 15:46 51.80449 -0.02165 2630 ft 206 kts 197°
2026-04-22 15:46 51.79097 -0.02559 2554 ft 193 kts 165°
2026-04-22 15:46 51.77896 -0.01843 2558 ft 181 kts 137°
2026-04-22 15:47 51.76993 -0.00478 2554 ft 178 kts 127°
2026-04-22 15:47 51.76356 0.01184 2491 ft 174 kts 106°
2026-04-22 15:47 51.76173 0.03081 2497 ft 172 kts 86°
2026-04-22 15:47 51.76443 0.04944 2499 ft 172 kts 67°
2026-04-22 15:48 51.77138 0.06521 2503 ft 175 kts 47°
2026-04-22 15:48 51.78046 0.07870 2501 ft 178 kts 47°
2026-04-22 15:48 51.78947 0.09204 2509 ft 177 kts 47°
2026-04-22 15:48 51.79817 0.10493 2471 ft 164 kts 49°
2026-04-22 15:49 51.80640 0.11721 2285 ft 157 kts 48°
2026-04-22 15:49 51.81415 0.12875 2071 ft 145 kts 47°
2026-04-22 15:49 51.82124 0.13933 1909 ft 136 kts 48°
2026-04-22 15:49 51.82811 0.14961 1724 ft 134 kts 49°
2026-04-22 15:50 51.83487 0.15971 1529 ft 130 kts 50°
2026-04-22 15:50 51.84154 0.16970 1362 ft 131 kts 48°
2026-04-22 15:50 51.84826 0.17976 1175 ft 133 kts 48°
2026-04-22 15:50 51.85500 0.18984 987 ft 131 kts 50°
2026-04-22 15:51 51.86169 0.19985 814 ft 132 kts 51°
2026-04-22 15:51 51.86838 0.20994 614 ft 131 kts 49°
2026-04-22 15:51 51.87516 0.22004 415 ft 131 kts 49°
2026-04-22 15:51 51.88168 0.22982 331 ft 117 kts 45°
2026-04-22 15:52 51.88643 0.23698 335 ft 69 kts 42°
2026-04-22 15:52 51.88874 0.24042 351 ft 30 kts 43°
2026-04-22 15:52 51.89006 0.24255 355 ft 24 kts 51°
2026-04-22 15:52 51.89079 0.24456 353 ft 17 kts 69°
2026-04-22 15:53 51.89124 0.24632 357 ft 16 kts 68°
2026-04-22 15:53 51.89156 0.24759 356 ft 10 kts 67°
2026-04-22 15:53 51.89170 0.24828 350 ft 5 kts 83°
2026-04-22 15:53 51.89167 0.24856 349 ft 0 kts 104°
2026-04-22 15:59 51.89165 0.24865 359 ft 1 kts 113°
2026-04-22 15:59 51.89160 0.24876 358 ft 2 kts 126°
2026-04-22 15:59 51.89150 0.24902 356 ft 5 kts 116°
2026-04-22 15:59 51.89176 0.24979 359 ft 12 kts 39°
2026-04-22 16:00 51.89230 0.25085 357 ft 9 kts 60°
2026-04-22 16:00 51.89233 0.25181 360 ft 10 kts 126°
2026-04-22 16:00 51.89189 0.25277 357 ft 11 kts 117°
2026-04-22 16:00 51.89147 0.25379 352 ft 8 kts 132°
2026-04-22 16:01 51.89135 0.25432 352 ft 5 kts 78°
2026-04-22 16:01 51.89154 0.25479 357 ft 2 kts 54°
2026-04-22 16:01 51.89161 0.25495 354 ft 1 kts 54°
2026-04-22 16:01 51.89161 0.25497 354 ft 0 kts 54°